Location: Bright Sky Observatory
(40.7821°N, 74.2425°W)
Time: 06:26:54
(UTC-04:00)

Amateur Radio Satellites - All Passes

Search period start: 23 April 2014 05:56
Search period end: 24 April 2014 05:56
Location: Bright Sky Observatory, 40.7821°N, 74.2425°W

Satellite Date Start Highest point End Downlink Frequencies (MHz)
Time Altitude Azimuth
Gurwin Techsat 1B 23 Apr 05:59:28 06:00:35 11° 303° (WNW) 06:01:42 435.225 FM
JAS-2 23 Apr 06:35:44 06:37:53 12° 91° (E) 06:40:07 435.800 - 435.900 CW/SSB, 435.910 FM
MaSat-1 23 Apr 06:49:32 06:52:34 48° 247° (WSW) 06:56:10 437.345 MHz
STRAND 1 23 Apr 06:56:25 07:01:31 78° 257° (WSW) 07:06:39 ?
KITSAT 1 23 Apr 07:16:14 07:16:29 10° 359° (N) 07:16:44 435.175 FM
Hamsat 23 Apr 07:27:54 07:32:15 70° 285° (WNW) 07:36:36 145.90 MHz
AO-7 23 Apr 07:31:19 07:37:45 26° 305° (NW) 07:44:12 29.400 - 29.500 MHz
Sapphire 23 Apr 07:40:49 07:44:15 17° 42° (NE) 07:47:41 437.095 MHz 1200 baud AX-25 AFSK
SO-67 23 Apr 07:47:29 07:50:40 32° 97° (E) 07:53:50 435.3500 MHz FM
RS-15 23 Apr 08:08:53 08:19:41 50° 314° (NW) 08:30:15 29.354 - 29.394 USB, Beacon 29.352 USB
JAS-2 23 Apr 08:17:56 08:23:28 85° 285° (WNW) 08:29:38 435.800 - 435.900 CW/SSB, 435.910 FM
PCSat 23 Apr 08:24:27 08:29:24 35° 52° (NE) 08:34:20 145.825 MHz
PANSAT 23 Apr 08:41:12 08:43:06 13° 180° (S) 08:45:00 not established
KITSAT 1 23 Apr 09:10:43 09:16:04 18° 30° (NNE) 09:21:23 435.175 FM
SO-67 23 Apr 09:21:36 09:23:32 14° 293° (WNW) 09:25:28 435.3500 MHz FM
Sapphire 23 Apr 09:22:58 09:28:25 87° 242° (WSW) 09:33:50 437.095 MHz 1200 baud AX-25 AFSK
HO-68 23 Apr 09:30:10 09:36:43 37° 97° (E) 09:43:13 435.675 MHz FM
Saudisat 1A 23 Apr 10:05:48 10:10:09 54° 118° (ESE) 10:14:31 436.775 MHz
JAS-2 23 Apr 10:05:55 10:07:54 12° 300° (WNW) 10:09:57 435.800 - 435.900 CW/SSB, 435.910 FM
PCSat 23 Apr 10:07:55 10:12:46 34° 250° (WSW) 10:17:36 145.825 MHz
RS-15 23 Apr 10:27:44 10:35:36 21° 345° (NNW) 10:43:26 29.354 - 29.394 USB, Beacon 29.352 USB
Oscar 11 23 Apr 10:52:36 10:56:59 90° 105° (ESE) 11:01:21 145.825 FM, Beacon 2401.500 USB
FUNcube-1 23 Apr 10:55:15 10:59:03 30° 97° (E) 11:02:54 145.950 - 145.970 MHz USB
KITSAT 1 23 Apr 11:05:16 11:13:19 61° 55° (NE) 11:21:16 435.175 FM
Sapphire 23 Apr 11:09:45 11:10:59 11° 259° (WSW) 11:12:12 437.095 MHz 1200 baud AX-25 AFSK
HO-68 23 Apr 11:17:45 11:24:26 43° 295° (WNW) 11:31:07 435.675 MHz FM
Saudisat 1A 23 Apr 11:46:47 11:50:04 20° 316° (NW) 11:53:22 436.775 MHz
Oscar 19 23 Apr 12:10:24 12:12:00 11° 58° (ENE) 12:13:35 437.125 CW, 437.150 USB
Oscar 16 23 Apr 12:18:06 12:20:53 15° 60° (ENE) 12:23:41 437.025 USB, Beacon 2401.1428
Oscar 10/S400 23 Apr 12:20:29 13:55:27 35° 256° (WSW) 18:00:40 145.825 - 145.975 CW/USB, Beacon 145.810 USB
FUNcube-1 23 Apr 12:31:53 12:35:20 24° 292° (WNW) 12:38:50 145.950 - 145.970 MHz USB
RS-15 23 Apr 12:45:01 12:53:24 24° 22° (NNE) 13:01:50 29.354 - 29.394 USB, Beacon 29.352 USB
Uribyol 2 23 Apr 13:00:13 13:03:47 19° 63° (ENE) 13:07:22 436.500 FM
KITSAT 1 23 Apr 13:01:26 13:08:11 30° 254° (WSW) 13:14:55 435.175 FM
AO-Echo 23 Apr 13:15:30 13:19:10 20° 64° (ENE) 13:22:47 ?
SO-50 23 Apr 13:39:43 13:42:26 16° 109° (ESE) 13:45:10 436.795 FM
AO-27 23 Apr 13:41:06 13:45:59 43° 70° (ENE) 13:50:52 436.795 MHz FM
Oscar 19 23 Apr 13:45:22 13:50:31 87° 75° (ENE) 13:55:43 437.125 CW, 437.150 USB
ITAMSAT 1 23 Apr 13:50:30 13:55:30 52° 71° (ENE) 14:00:31 435.822 SSB
Oscar 16 23 Apr 13:54:29 13:59:36 73° 258° (WSW) 14:04:47 437.025 USB, Beacon 2401.1428
Gurwin Techsat 1B 23 Apr 13:59:01 14:02:53 21° 63° (ENE) 14:06:44 435.225 FM
ISS 23 Apr 14:11:04 14:14:24 83° 142° (SE) 14:17:45 145.800 FM
Uribyol 2 23 Apr 14:37:48 14:42:50 54° 259° (W) 14:47:54 436.500 FM
TMSAT-1 23 Apr 14:43:15 14:48:03 37° 69° (ENE) 14:52:52 436.925 FM
OPAL 23 Apr 14:44:27 14:47:54 18° 94° (E) 14:51:20 ?
JAS-1B 23 Apr 14:45:20 14:51:31 29° 65° (ENE) 14:56:56 435.800 - 435.900 CW/SSB
AO-7 23 Apr 14:46:22 14:52:21 23° 53° (NE) 14:58:20 29.400 - 29.500 MHz
AO-Echo 23 Apr 14:52:30 14:57:34 51° 260° (W) 15:02:32 ?
RS-15 23 Apr 14:57:42 15:08:34 63° 51° (NE) 15:19:39 29.354 - 29.394 USB, Beacon 29.352 USB
Uosat F 23 Apr 15:15:43 15:19:53 27° 66° (ENE) 15:24:03 435.120 FM
SO-50 23 Apr 15:18:10 15:22:33 54° 306° (NW) 15:26:59 436.795 FM
AO-27 23 Apr 15:21:39 15:25:39 23° 266° (W) 15:29:41 436.795 MHz FM
Oscar 19 23 Apr 15:29:39 15:30:31 10° 272° (W) 15:31:23 437.125 CW, 437.150 USB
ITAMSAT 1 23 Apr 15:31:43 15:35:17 19° 267° (W) 15:38:52 435.822 SSB
Gurwin Techsat 1B 23 Apr 15:37:18 15:42:27 52° 260° (W) 15:47:38 435.225 FM
UOSAT-12 23 Apr 15:38:30 15:40:54 14° 108° (ESE) 15:43:19 437.025 FM, 437.400 FM
ISS 23 Apr 15:48:54 15:51:28 20° 341° (NNW) 15:54:03 145.800 FM
OPAL 23 Apr 16:21:59 16:27:07 57° 290° (WNW) 16:32:12 ?
TMSAT-1 23 Apr 16:23:32 16:28:00 28° 265° (W) 16:32:31 436.925 FM
JAS-1B 23 Apr 16:34:14 16:41:56 54° 259° (WSW) 16:48:25 435.800 - 435.900 CW/SSB
AO-7 23 Apr 16:35:52 16:44:09 85° 252° (WSW) 16:52:30 29.400 - 29.500 MHz
Uosat F 23 Apr 16:53:56 16:58:31 35° 262° (W) 17:03:07 435.120 FM
RS-15 23 Apr 17:10:40 17:20:20 38° 253° (WSW) 17:30:18 29.354 - 29.394 USB, Beacon 29.352 USB
UOSAT-12 23 Apr 17:15:58 17:20:29 63° 305° (NW) 17:25:07 437.025 FM, 437.400 FM
ISS 23 Apr 17:27:32 17:29:10 13° 1° (N) 17:30:49 145.800 FM
Hamsat 23 Apr 18:20:56 18:25:08 80° 76° (ENE) 18:29:24 145.90 MHz
SO-67 23 Apr 18:22:49 18:24:13 12° 66° (ENE) 18:25:36 435.3500 MHz FM
JAS-2 23 Apr 18:30:53 18:35:59 37° 69° (ENE) 18:40:46 435.800 - 435.900 CW/SSB, 435.910 FM
Saudisat 1A 23 Apr 18:32:59 18:37:11 41° 51° (NE) 18:41:19 436.775 MHz
AO-7 23 Apr 18:33:18 18:38:01 16° 270° (W) 18:42:46 29.400 - 29.500 MHz
UOSAT-12 23 Apr 19:00:06 19:01:36 11° 325° (NW) 19:03:06 437.025 FM, 437.400 FM
ISS 23 Apr 19:04:07 19:06:50 22° 21° (NNE) 19:09:33 145.800 FM
STRAND 1 23 Apr 19:07:34 19:12:15 36° 98° (E) 19:16:54 ?
SO-67 23 Apr 19:53:42 19:56:59 39° 262° (W) 20:00:18 435.3500 MHz FM
HO-68 23 Apr 19:59:12 20:05:01 28° 60° (ENE) 20:10:51 435.675 MHz FM
Saudisat 1A 23 Apr 20:13:13 20:16:31 21° 249° (WSW) 20:19:47 436.775 MHz
JAS-2 23 Apr 20:16:27 20:21:10 27° 264° (W) 20:25:37 435.800 - 435.900 CW/SSB, 435.910 FM
ISS 23 Apr 20:40:29 20:43:49 66° 219° (SW) 20:47:08 145.800 FM
STRAND 1 23 Apr 20:47:02 20:51:17 27° 294° (WNW) 20:55:31 ?
MaSat-1 23 Apr 20:52:25 20:55:15 89° 296° (WNW) 20:57:48 437.345 MHz
HO-68 23 Apr 21:45:15 21:52:15 59° 258° (WSW) 21:59:19 435.675 MHz FM
Oscar 11 23 Apr 21:47:16 21:51:32 68° 75° (ENE) 21:55:51 145.825 FM, Beacon 2401.500 USB
FUNcube-1 23 Apr 21:52:20 21:55:38 23° 68° (ENE) 21:58:55 145.950 - 145.970 MHz USB
SO-50 23 Apr 22:10:18 22:13:31 18° 42° (NE) 22:16:46 436.795 FM
Sapphire 23 Apr 22:25:16 22:27:05 12° 102° (ESE) 22:28:54 437.095 MHz 1200 baud AX-25 AFSK
PCSat 23 Apr 23:06:19 23:11:02 32° 109° (ESE) 23:15:46 145.825 MHz
Oscar 11 23 Apr 23:27:49 23:28:11 10° 271° (W) 23:28:33 145.825 FM, Beacon 2401.500 USB
FUNcube-1 23 Apr 23:28:20 23:31:56 28° 264° (W) 23:35:32 145.950 - 145.970 MHz USB
SO-50 23 Apr 23:49:54 23:54:32 67° 240° (WSW) 23:59:13 436.795 FM
Sapphire 24 Apr 00:04:16 00:09:41 88° 298° (WNW) 00:15:09 437.095 MHz 1200 baud AX-25 AFSK
UOSAT-12 24 Apr 00:06:49 00:09:48 16° 40° (NE) 00:12:46 437.025 FM, 437.400 FM
PCSat 24 Apr 00:49:21 00:54:20 37° 307° (NW) 00:59:22 145.825 MHz
KITSAT 1 24 Apr 01:33:18 01:40:47 43° 110° (ESE) 01:48:18 435.175 FM
UOSAT-12 24 Apr 01:45:48 01:50:33 81° 239° (WSW) 01:55:14 437.025 FM, 437.400 FM
Sapphire 24 Apr 01:50:38 01:53:55 16° 318° (NW) 01:57:12 437.095 MHz 1200 baud AX-25 AFSK
AO-27 24 Apr 01:55:40 01:58:42 16° 91° (E) 02:01:44 436.795 MHz FM
Oscar 19 24 Apr 01:57:39 02:02:17 31° 96° (E) 02:06:52 437.125 CW, 437.150 USB
OPAL 24 Apr 01:58:45 02:03:09 31° 65° (ENE) 02:07:36 ?
ITAMSAT 1 24 Apr 02:04:37 02:08:13 19° 93° (E) 02:11:48 435.822 SSB
Oscar 16 24 Apr 02:06:37 02:11:32 41° 98° (E) 02:16:25 437.025 USB, Beacon 2401.1428
Uribyol 2 24 Apr 02:50:40 02:55:46 55° 101° (E) 03:00:50 436.500 FM
AO-Echo 24 Apr 03:00:09 03:04:47 51° 100° (E) 03:09:20 ?
TMSAT-1 24 Apr 03:00:40 03:03:29 14° 90° (E) 03:06:18 436.925 FM
KITSAT 1 24 Apr 03:28:23 03:36:07 46° 310° (NW) 03:43:54 435.175 FM
AO-27 24 Apr 03:33:31 03:38:38 62° 287° (WNW) 03:43:44 436.795 MHz FM
Oscar 19 24 Apr 03:37:00 03:41:33 32° 293° (WNW) 03:46:05 437.125 CW, 437.150 USB
OPAL 24 Apr 03:37:28 03:41:57 32° 261° (W) 03:46:31 ?
ITAMSAT 1 24 Apr 03:42:59 03:48:00 52° 289° (WNW) 03:53:00 435.822 SSB
Oscar 16 24 Apr 03:46:28 03:50:38 25° 295° (WNW) 03:54:47 437.025 USB, Beacon 2401.1428
Gurwin Techsat 1B 24 Apr 03:53:35 03:58:53 65° 102° (ESE) 04:04:09 435.225 FM
JAS-1B 24 Apr 04:18:58 04:24:16 39° 99° (E) 04:29:56 435.800 - 435.900 CW/SSB
Uribyol 2 24 Apr 04:31:14 04:34:48 19° 297° (WNW) 04:38:23 436.500 FM
AO-7 24 Apr 04:38:12 04:45:32 33° 97° (E) 04:52:48 29.400 - 29.500 MHz
TMSAT-1 24 Apr 04:38:37 04:43:54 69° 286° (WNW) 04:49:08 436.925 FM
AO-Echo 24 Apr 04:40:07 04:43:09 17° 297° (WNW) 04:46:09 ?
Uosat F 24 Apr 05:01:20 05:06:21 72° 103° (ESE) 05:11:19 435.120 FM
MaSat-1 24 Apr 05:15:48 05:17:44 15° 58° (ENE) 05:19:51 437.345 MHz
RS-15 24 Apr 05:21:29 05:31:34 39° 108° (ESE) 05:41:20 29.354 - 29.394 USB, Beacon 29.352 USB
KITSAT 1 24 Apr 05:29:31 05:33:55 15° 336° (NNW) 05:38:19 435.175 FM
Gurwin Techsat 1B 24 Apr 05:34:59 05:38:18 17° 299° (WNW) 05:41:36 435.225 FM
